Probability
0 0 0 0 0 0 0 0 0 0 0 0 0 0 0 0 0 0 0 0 0 0 0 0 0 0 0 0 0 3 16 6 0 3 32 81 94 100
0 0 0 0 0 0 0 0 0 0 0 0 0 0 0 0 0 0 0 0 0 0 0 0 0 0 0 0 0 0 0 0 0 0 23 71 74 71
0 0 0 0 0 0 0 0 0 0 0 0 0 0 0 0 0 0 0 0 0 0 0 0 0 0 0 0 0 0 0 0 0 0 13 42 68 58
0 0 0 0 0 0 0 0 0 0 0 0 0 0 0 0 0 0 0 0 0 0 0 0 0 0 0 0 0 0 0 0 0 0 0 3 19 26
0 0 0 0 0 0 0 0 0 0 0 0 0 0 0 0 0 0 0 0 0 0 0 0 0 0 0 0 0 0 0 0 0 0 0 0 0 0
0 0 0 0 0 0 0 0 0 0 0 0 0 0 0 0 0 0 0 0 0 0 0 0 0 0 0 0 0 0 0 0 0 0 0 0 0 0
0 0 0 0 0 0 0 0 0 0 0 0 0 0 0 0 0 0 0 0 0 0 0 0 0 0 0 0 0 0 0 0 0 0 0 0 0 0
0 0 0 0 0 0 0 0 0 0 0 0 0 0 0 0 0 0 0 0 0 0 0 0 0 0 0 0 0 0 0 0 0 0 0 0 0 0
0 0 0 0 0 0 0 0 0 0 0 0 0 0 0 0 0 0 0 0 0 0 0 0 0 0 0 0 0 0 0 0 0 0 0 0 0 0
0 0 0 0 0 0 0 0 0 0 0 0 0 0 0 0 0 0 0 0 0 0 0 0 0 0 0 0 0 0 0 0 0 0 0 0 0 0
0 0 0 0 0 0 0 0 0 0 0 0 0 0 0 0 0 0 0 0 0 0 0 0 0 0 0 0 0 0 0 0 0 0 0 0 0 0
0 0 0 0 0 0 0 0 0 0 0 0 0 0 0 0 0 0 0 0 0 0 0 0 0 0 0 0 0 0 0 0 0 0 0 0 0 0
0 0 0 0 0 0 0 0 0 0 0 0 0 0 0 0 0 0 0 0 0 0 0 0 0 0 0 0 0 0 0 0 0 0 0 0 0 0
0 0 0 0 0 0 0 0 0 0 0 0 0 0 0 0 0 0 0 0 0 0 0 0 0 0 0 0 0 0 0 0 0 0 0 0 0 0
0 0 0 0 0 0 0 0 0 0 0 0 0 0 0 0 0 0 0 0 0 0 0 0 0 0 0 0 0 0 0 0 0 0 0 0 0 0
0 0 0 0 0 0 0 0 0 0 0 0 0 0 0 0 0 0 0 0 0 0 0 0 0 0 0 0 0 0 0 0 0 0 0 0 0 0
0 0 0 0 0 0 0 0 0 0 0 0 0 0 0 0 0 0 0 0 0 0 0 0 0 0 0 0 0 0 0 0 0 0 0 0 0 0
0 0 0 0 0 0 0 0 0 0 0 0 0 0 0 0 0 0 0 0 0 0 0 0 0 0 0 0 0 0 0 0 0 0 0 0 0 0
0 0 0 0 0 0 0 0 0 0 0 0 0 0 0 0 0 0 0 0 0 0 0 0 0 0 0 0 0 0 0 0 0 0 0 0 0 0
0 0 0 0 0 0 0 0 0 0 0 0 0 0 0 0 0 0 0 0 0 0 0 0 0 0 0 0 0 0 0 0 0 0 0 0 0 0
0 0 0 0 0 0 0 0 0 0 0 0 0 0 0 0 0 0 0 0 0 0 0 0 0 0 0 0 0 0 0 0 0 0 0 0 0 0
0 0 0 0 0 0 0 0 0 0 0 0 0 0 0 0 0 0 0 0 0 0 0 0 0 0 0 0 0 0 0 0 0 0 0 0 0 0
0 0 0 0 0 0 0 0 0 0 0 0 0 0 0 0 0 0 0 0 0 0 0 0 0 0 0 0 0 0 0 0 0 0 0 0 0 0
Height
5383 5387 5393 5401 5410 5419 5429 5440 5451 5460 5470 5483 5497 5512 5528 5544 5560 5575 5589 5602 5614 5627 5639 5650 5662 5673 5684 5695 5703 5711 5719 5726 5733 5740 5746 5753 5760 5767
5369 5373 5379 5386 5394 5403 5413 5424 5435 5445 5455 5467 5480 5495 5510 5526 5542 5558 5572 5586 5599 5612 5625 5637 5649 5661 5672 5683 5693 5701 5709 5716 5723 5730 5737 5743 5750 5757
5356 5360 5365 5372 5380 5388 5398 5409 5420 5430 5441 5452 5464 5479 5494 5510 5525 5540 5556 5570 5584 5597 5610 5623 5635 5648 5659 5670 5681 5690 5698 5706 5714 5721 5727 5734 5740 5748
5343 5347 5352 5359 5366 5375 5384 5395 5406 5417 5427 5438 5449 5463 5478 5494 5508 5524 5539 5554 5568 5582 5596 5609 5622 5634 5646 5657 5668 5678 5687 5695 5703 5711 5718 5725 5732 5738
5329 5335 5340 5347 5354 5362 5371 5382 5392 5403 5414 5424 5435 5447 5462 5477 5492 5508 5522 5538 5552 5567 5581 5595 5608 5620 5633 5644 5655 5666 5676 5686 5694 5701 5708 5715 5722 5729
5316 5322 5329 5335 5343 5351 5360 5370 5380 5391 5402 5411 5421 5432 5447 5461 5476 5491 5506 5521 5537 5552 5566 5580 5593 5606 5619 5632 5644 5654 5664 5673 5682 5691 5698 5705 5712 5719
5303 5310 5318 5325 5332 5340 5349 5359 5370 5380 5391 5400 5409 5420 5432 5446 5461 5476 5492 5506 5522 5536 5551 5566 5581 5595 5605 5618 5629 5641 5652 5662 5671 5680 5688 5695 5702 5709
5293 5300 5308 5316 5324 5331 5340 5350 5360 5371 5381 5390 5398 5407 5418 5432 5446 5461 5477 5491 5508 5524 5538 5551 5565 5578 5591 5604 5616 5628 5639 5649 5659 5668 5677 5685 5691 5698
5287 5294 5301 5308 5316 5324 5333 5342 5352 5362 5371 5380 5389 5397 5407 5420 5435 5451 5463 5477 5493 5507 5522 5537 5550 5564 5578 5591 5603 5615 5626 5637 5647 5656 5665 5673 5680 5687
5284 5290 5296 5303 5310 5318 5326 5335 5344 5354 5363 5373 5382 5390 5398 5408 5421 5435 5449 5465 5480 5494 5508 5523 5536 5551 5564 5577 5589 5601 5613 5624 5634 5643 5652 5660 5668 5675
5283 5287 5292 5299 5306 5313 5321 5329 5338 5347 5356 5364 5373 5381 5390 5399 5410 5423 5438 5452 5467 5481 5495 5509 5523 5537 5551 5564 5576 5588 5600 5611 5621 5631 5640 5648 5656 5663
5284 5287 5291 5297 5303 5309 5317 5324 5332 5341 5349 5358 5366 5375 5383 5392 5401 5413 5427 5441 5455 5469 5482 5496 5510 5525 5537 5550 5563 5576 5587 5598 5608 5618 5627 5636 5644 5651
5285 5288 5291 5296 5301 5307 5313 5320 5327 5336 5344 5352 5361 5369 5377 5385 5394 5405 5417 5431 5445 5459 5472 5486 5500 5513 5526 5540 5552 5564 5575 5586 5596 5605 5614 5623 5631 5639
5287 5289 5291 5295 5300 5304 5310 5316 5323 5331 5339 5347 5355 5364 5372 5380 5388 5398 5409 5421 5435 5449 5463 5476 5490 5503 5517 5529 5541 5552 5563 5574 5584 5593 5602 5610 5618 5626
5289 5290 5292 5295 5298 5303 5307 5313 5320 5327 5335 5343 5351 5359 5367 5375 5383 5392 5403 5414 5426 5439 5453 5466 5479 5492 5505 5518 5530 5541 5551 5561 5570 5580 5589 5597 5605 5612
5291 5291 5292 5294 5297 5300 5305 5310 5316 5323 5331 5338 5346 5354 5362 5370 5379 5387 5397 5407 5418 5430 5443 5456 5469 5481 5494 5505 5516 5528 5538 5548 5557 5567 5576 5584 5592 5599
5292 5292 5292 5293 5295 5298 5302 5307 5313 5319 5326 5334 5342 5350 5358 5366 5374 5382 5391 5400 5411 5422 5434 5446 5458 5471 5483 5494 5504 5515 5526 5535 5545 5554 5563 5571 5578 5585
5295 5293 5292 5292 5293 5295 5299 5303 5309 5315 5322 5330 5337 5345 5353 5361 5369 5377 5386 5395 5405 5415 5426 5438 5450 5462 5473 5483 5492 5503 5513 5523 5532 5541 5549 5558 5565 5572
5299 5295 5292 5292 5292 5293 5296 5300 5305 5311 5317 5325 5333 5341 5349 5357 5365 5373 5381 5390 5399 5409 5419 5430 5441 5452 5463 5474 5482 5492 5502 5511 5520 5529 5537 5545 5553 5560
5303 5298 5294 5292 5291 5291 5293 5296 5301 5306 5312 5320 5327 5335 5344 5352 5360 5368 5376 5385 5394 5403 5413 5422 5433 5443 5455 5465 5475 5484 5492 5501 5510 5518 5526 5533 5541 5548
5308 5302 5297 5294 5291 5290 5291 5293 5296 5301 5307 5314 5321 5329 5338 5346 5355 5363 5372 5380 5389 5398 5407 5416 5425 5436 5446 5456 5466 5475 5484 5492 5500 5508 5516 5524 5532 5539
5313 5306 5301 5296 5292 5290 5290 5290 5293 5296 5302 5308 5315 5323 5331 5340 5349 5358 5366 5375 5384 5393 5402 5411 5420 5429 5439 5449 5458 5467 5476 5484 5492 5500 5508 5517 5523 5531
5318 5311 5304 5299 5294 5291 5289 5288 5289 5292 5296 5302 5309 5316 5325 5333 5342 5351 5360 5369 5378 5387 5396 5405 5414 5423 5432 5441 5451 5459 5468 5477 5485 5493 5501 5508 5516 5523
Wind_Speed
41 46 51 56 59 61 61 61 62 66 75 82 89 93 95 94 93 90 85 81 78 75 73 72 70 69 67 65 62 58 55 52 52 52 55 57 56 55
38 42 46 51 56 59 60 60 60 62 68 76 82 87 91 92 92 91 89 85 82 78 75 72 71 70 68 66 64 61 59 55 53 52 53 56 58 57
36 39 42 47 51 55 58 59 59 59 62 71 78 81 85 87 89 90 89 86 84 82 78 74 72 71 69 67 65 64 62 59 56 54 54 56 58 58
37 37 40 43 47 52 55 57 57 57 58 65 74 79 81 81 85 87 86 86 84 83 80 78 74 72 70 68 66 65 64 61 59 57 55 54 54 56
37 37 38 40 44 48 52 54 55 55 55 59 70 77 79 79 81 83 85 86 84 82 80 79 77 74 71 69 68 67 66 64 61 58 56 53 51 52
38 37 37 38 41 45 49 52 52 53 53 54 64 75 80 80 79 80 82 84 84 83 81 79 77 75 73 71 69 68 67 66 63 61 58 55 52 50
35 36 37 37 39 42 46 49 50 50 50 50 57 69 79 83 82 79 79 82 84 84 83 81 78 76 74 72 71 69 68 67 65 62 60 58 55 53
31 33 35 37 38 40 43 46 48 48 48 48 51 61 74 84 85 83 80 80 81 84 83 81 80 77 75 72 71 70 69 67 66 64 62 60 58 55
25 28 31 34 36 38 41 44 45 45 46 46 47 53 65 78 84 83 82 80 81 83 83 82 81 78 76 73 71 71 70 68 66 65 63 62 60 58
20 23 26 30 34 36 39 41 42 43 43 43 43 47 55 68 79 83 82 80 80 81 82 82 82 80 77 74 71 70 69 68 66 65 64 63 62 60
17 20 24 27 31 34 36 39 40 41 41 41 42 43 48 57 69 77 80 79 78 78 79 80 81 80 78 75 72 70 68 67 66 65 63 62 61 60
14 18 22 25 28 31 34 36 38 39 39 39 40 41 43 48 57 67 73 75 75 74 75 77 78 79 78 76 73 71 69 67 66 65 64 63 62 60
11 15 18 22 24 28 31 34 37 38 38 38 38 40 41 44 48 57 64 69 71 71 72 74 74 75 77 76 74 72 70 68 66 64 63 62 62 61
8 12 16 20 22 26 29 32 35 36 37 37 37 39 41 42 44 49 55 60 64 66 67 68 68 69 70 72 71 70 69 67 66 64 63 62 61 61
4 9 13 17 20 24 27 31 34 35 36 36 37 38 39 41 43 45 49 53 56 60 60 62 63 63 63 64 65 65 64 65 64 64 63 62 62 62
3 6 10 14 18 22 26 29 32 34 35 36 37 38 38 40 42 44 46 49 52 56 58 59 59 59 59 60 61 60 60 59 59 59 60 61 61 61
9 4 6 10 15 20 24 28 31 33 35 36 37 38 39 40 41 43 45 47 49 52 56 58 58 58 58 58 58 59 59 60 60 60 60 61 61 61
17 9 5 6 10 16 22 26 30 33 35 36 37 38 39 40 40 42 44 46 47 49 53 57 58 58 57 56 56 57 57 58 58 59 60 62 62 62
26 18 10 5 6 12 18 24 29 32 35 36 38 39 40 41 41 42 44 45 46 48 51 54 56 58 57 57 56 56 55 57 58 59 59 61 61 61
32 26 18 10 4 6 13 21 27 31 34 37 39 40 41 41 42 42 44 45 45 47 49 51 54 55 56 54 53 53 54 54 55 55 56 57 58 58
36 31 25 18 9 4 7 15 23 29 33 37 39 41 42 43 43 43 44 45 45 46 48 50 51 53 53 53 52 51 50 51 51 50 49 49 49 49
39 34 30 24 17 9 4 9 17 26 32 36 39 42 44 44 45 45 45 45 46 47 48 48 49 51 51 52 51 50 49 48 48 47 46 45 43 42
40 37 33 28 22 15 8 4 11 20 28 34 38 42 44 46 47 48 48 48 47 47 48 48 50 51 51 51 51 50 49 48 47 46 44 42 41 39
Wind_Direction
248 241 235 231 229 228 227 225 223 224 223 220 220 220 221 221 220 220 220 221 222 222 223 223 223 223 223 224 225 226 227 228 227 226 226 225 224 225
250 242 236 232 229 227 226 225 223 222 222 220 219 219 220 220 220 220 221 221 222 221 221 222 223 223 223 223 224 225 226 227 226 225 225 225 225 225
250 243 237 232 229 226 225 224 223 221 220 219 217 217 217 218 219 219 220 220 221 221 221 221 222 223 223 223 223 224 226 227 226 226 226 226 226 225
248 243 237 232 228 225 224 223 222 221 220 218 216 213 214 214 217 218 218 220 220 221 221 221 221 222 223 223 223 224 225 227 227 228 228 228 227 227
244 240 236 231 227 224 223 222 221 220 219 217 215 213 210 210 212 214 216 217 218 219 220 221 221 221 222 223 223 223 225 227 228 230 232 232 230 229
239 236 233 229 225 223 221 220 219 219 219 217 215 213 210 206 207 209 212 214 216 217 218 219 220 221 222 222 222 223 224 226 228 230 232 234 234 233
232 230 228 225 223 221 219 218 218 218 218 217 215 214 212 208 205 206 209 211 214 216 217 218 219 220 221 222 222 223 224 226 227 229 231 234 235 235
225 224 223 222 220 219 218 217 216 217 217 217 215 214 213 212 209 206 205 208 211 214 215 216 218 218 220 221 222 222 223 225 227 228 230 232 235 236
217 218 218 218 217 217 216 215 215 215 216 216 215 214 214 213 212 208 206 207 209 212 214 215 216 218 219 220 221 222 223 224 226 227 229 231 234 236
205 209 213 214 214 214 214 214 213 213 214 215 214 212 213 214 214 212 210 208 209 211 213 214 216 218 219 220 221 222 222 223 224 226 228 230 232 235
195 202 208 210 211 212 212 212 212 211 212 213 212 210 210 212 214 214 213 212 211 211 213 215 216 218 219 220 221 222 223 224 225 226 228 229 232 234
191 203 208 210 210 211 211 211 210 209 210 210 210 209 208 208 210 213 214 214 214 213 213 215 216 217 219 220 221 223 224 225 226 228 229 231 232 234
186 200 208 211 210 210 211 210 209 208 208 208 208 207 206 206 207 208 211 213 214 215 215 216 217 218 220 221 222 224 225 226 228 229 231 232 234 235
193 208 213 214 212 211 211 210 209 207 206 206 206 205 204 204 204 204 205 208 211 214 215 216 218 220 221 222 223 224 226 227 228 229 231 233 235 237
222 222 222 219 216 213 212 211 209 207 205 204 203 203 203 203 203 202 201 202 204 207 211 214 215 218 220 222 223 224 226 227 229 230 231 232 234 236
320 247 233 226 220 216 213 212 210 208 205 203 202 201 201 201 202 201 200 199 199 201 204 208 211 213 215 218 221 222 223 225 227 229 230 231 233 234
4 317 256 235 225 219 215 212 210 208 206 204 202 200 199 199 199 199 199 199 198 199 201 202 205 207 210 213 216 218 219 220 221 222 224 227 229 232
18 2 319 257 232 221 216 213 211 209 207 205 202 200 198 198 198 198 198 199 198 198 199 200 202 203 205 208 212 214 216 217 218 219 221 223 226 229
24 19 6 323 252 229 219 214 211 209 208 206 203 201 199 198 197 197 197 197 197 196 196 197 199 200 201 205 208 210 212 214 217 219 221 223 225 228
24 23 19 7 322 245 224 216 213 210 208 207 205 202 200 199 197 197 196 195 195 195 195 196 198 199 202 204 208 210 212 215 218 220 222 224 227 231
23 23 21 18 6 310 237 219 214 211 209 207 206 204 202 200 198 197 196 195 195 195 195 196 197 198 200 203 205 208 212 214 217 219 222 224 227 230
22 21 20 19 15 3 295 230 217 213 210 208 207 205 204 202 200 199 198 197 196 196 197 197 198 199 201 202 204 207 210 212 215 217 219 222 225 227
20 20 19 18 16 11 358 275 225 214 211 210 207 206 205 204 202 201 200 199 198 198 198 199 199 200 201 203 204 206 209 211 214 216 218 220 223 225